sat.trackr.live / text

‹ back to catalog

UNKNOWN

NORAD 82484

UNKNOWN UNKNOWN UNKNOWN

§ Identity

Operator
Country
Launch date
Launch site
Launch vehicle
Mass (kg)
RCS (m²)

External: N2YO · Heavens-Above

§ Orbital elements

Epoch: 2026-05-24T00:21:50.135040Z

Period
106.21 min
Inclination
99.3419°
Eccentricity
0.0045607
Mean motion
13.55859774 rev/d
Perigee alt
1,016.9 km
Apogee alt
1,084.7 km
Semi-major
7,428.9 km
B*
1.3001e-4
RAAN
162.2331°
Arg perigee
141.5925°
Mean anomaly
218.8475°
Rev number
61,262

§ Raw data

UNKNOWN1 82484U          26144.01516360  .00000050  00000+0  13001-3 0  99972 82484  99.3419 162.2331 0045607 141.5925 218.8475 13.55859774612626

JSON: /api/v1/satellites/82484 · /tle

For live sub-satellite position, see the globe view (requires WebGL).

§ Visibility from observer

Set your observer location to see the next 7 days of passes ≥ 10°. The values pass through the URL so the page stays shareable.

No JS? Fill the form by hand. The geolocation button needs JavaScript.